Find Kuiper-00158

NORAD ID: 65776 Int'l Des: 2025-217 Owner: KUIP Country: US Constellation: amazon-leo operational
LEOCIRCULAR

当前视图

正在加载3D地球...

About Kuiper-00158

Kuiper-00158 (NORAD 65776) is a amazon-leo constellation satellite launched Sep 25, 2025 by KUIP of US. It operates in LEO, CIRCULAR orbit with a mass of 490.00 kg.

关于 Kuiper-00158

正在加载描述...

即将过境

Passes for default location (London). Set your location on the main map for personalized predictions.

高度历史

Loading altitude history...

两行轨道根数

1 65776U 25217Q 26194.44296966 .00001523 00000-0 22004-3 0 9998
2 65776 51.8958 208.2850 0000764 77.3893 282.7156 14.81627071 43485
Epoch: Jul 13, 2026 • Age: 18 hours

当前状态

高度 626.0 km
远地点 / 近地点 N/A
速度 7.55 km/s
星下点 -6.74°S, 158.35°W
发射日期 Sep 25, 2025
运行时间 0.7 years
类型 internet

技术详情

分类 Payload
质量 490.00 kg
干质量 490.00 kg
总质量 490.00 kg
长度 1.80 m
直径 0.70 m
跨度 5.00 m
形状 Box + 2 pan
制造商 KUIP
平台类型 Kuiper
阶段状态 In Orbit
所有者/国家 KUIP/US

Most Searched